Location: Bishopstone
(51.0167°N, 1.9000°W)
Time: 19:48:09
(UTC+00:00)

KORONAS-FOTON - Pass Details

Date: 16 September 2019
Orbit: 506 x 533 km, 82.4° (Epoch: 21 October)

Event Time Altitude Azimuth Distance (km) Brightness Sun altitude
Rises 20:38:05 0° 350° (N) 2,635 8.0 -21.2°
Reaches altitude 10° 20:40:14 10° 353° (N) 1,741 7.0 -21.4°
Enters shadow 20:43:45 69° 36° (NE) 551 3.8 -21.9°
